STAR ONE C4

Last updated on Tue Sep 22 2026 00:03:13 GMT+0000 (Coordinated Universal Time)

1 40733U 15034B 26264.47520395 -.00000269 00000+0 00000+0 0 9991 2 40733 0.0445 4.6966 0000964 173.8804 282.8742 1.00273333 40989
UTC large
Height (km)
Speed (km/s)
/
Latitude / Longitude
Inclination (degrees)
Orbital Period (minutes)
Azimuth
Elevation
Range (km)
Doppler Factor

Next 0 passes for location: London (51.5072 / 0.1276)

No passes found over London.
STAR ONE C4